TimeEST,TemperatureF,Dew PointF,Humidity,Sea Level PressureIn,VisibilityMPH,Wind Direction,Wind SpeedMPH,Gust SpeedMPH,PrecipitationIn,Events,Conditions,WindDirDegrees,DateUTC
12:15 AM,48.2,44.6,87,30.02,10.0,Calm,Calm,-,N/A,,Clear,0,2013-02-16 05:15:00
12:35 AM,48.2,42.8,82,30.02,10.0,Calm,Calm,-,N/A,,Clear,0,2013-02-16 05:35:00
12:55 AM,46.4,42.8,87,30.02,10.0,Calm,Calm,-,N/A,,Clear,0,2013-02-16 05:55:00
1:15 AM,46.4,42.8,87,30.01,10.0,Calm,Calm,-,N/A,,Clear,0,2013-02-16 06:15:00
1:35 AM,46.4,44.6,93,30.01,10.0,Calm,Calm,-,N/A,,Clear,0,2013-02-16 06:35:00
1:55 AM,46.4,44.6,93,30.00,10.0,Calm,Calm,-,N/A,,Clear,0,2013-02-16 06:55:00
2:15 AM,46.4,42.8,87,30.00,10.0,Calm,Calm,-,N/A,,Clear,0,2013-02-16 07:15:00
2:35 AM,46.4,44.6,93,29.99,10.0,Calm,Calm,-,N/A,,Clear,0,2013-02-16 07:35:00
2:55 AM,46.4,42.8,87,29.98,10.0,Calm,Calm,-,N/A,,Clear,0,2013-02-16 07:55:00
3:15 AM,48.2,42.8,82,29.98,10.0,West,3.5,-,N/A,,Clear,280,2013-02-16 08:15:00
3:35 AM,48.2,42.8,82,29.97,10.0,Calm,Calm,-,N/A,,Clear,0,2013-02-16 08:35:00
3:55 AM,46.4,42.8,87,29.97,10.0,WNW,3.5,-,N/A,,Clear,290,2013-02-16 08:55:00
4:15 AM,46.4,42.8,87,29.96,10.0,WNW,3.5,-,N/A,,Clear,300,2013-02-16 09:15:00
4:35 AM,46.4,42.8,87,29.97,10.0,NW,4.6,-,N/A,,Clear,310,2013-02-16 09:35:00
4:55 AM,46.4,42.8,87,29.97,10.0,NW,3.5,-,N/A,,Clear,320,2013-02-16 09:55:00
5:15 AM,46.4,42.8,87,29.97,10.0,Calm,Calm,-,N/A,,Clear,0,2013-02-16 10:15:00
5:35 AM,46.4,42.8,87,29.97,10.0,Calm,Calm,-,N/A,,Clear,0,2013-02-16 10:35:00
5:55 AM,46.4,41.0,81,29.97,10.0,NW,3.5,-,N/A,,Clear,320,2013-02-16 10:55:00
6:15 AM,46.4,41.0,81,29.98,10.0,NW,5.8,-,N/A,,Clear,310,2013-02-16 11:15:00
6:35 AM,46.4,41.0,81,29.98,10.0,NW,3.5,-,N/A,,Clear,320,2013-02-16 11:35:00
6:55 AM,46.4,41.0,81,29.98,10.0,NW,4.6,-,N/A,,Clear,320,2013-02-16 11:55:00
7:15 AM,44.6,41.0,87,29.99,10.0,Calm,Calm,-,N/A,,Clear,0,2013-02-16 12:15:00
7:35 AM,44.6,41.0,87,30.00,10.0,WNW,4.6,-,N/A,,Mostly Cloudy,300,2013-02-16 12:35:00
7:55 AM,46.4,41.0,81,30.00,10.0,NW,5.8,-,N/A,,Overcast,320,2013-02-16 12:55:00
8:15 AM,46.4,41.0,81,30.02,10.0,NW,8.1,-,N/A,,Overcast,310,2013-02-16 13:15:00
8:35 AM,46.4,41.0,81,30.03,10.0,NW,9.2,-,N/A,,Overcast,320,2013-02-16 13:35:00
8:55 AM,48.2,39.2,71,30.04,10.0,NW,9.2,-,N/A,,Overcast,320,2013-02-16 13:55:00
9:15 AM,48.2,39.2,71,30.05,10.0,NNW,15.0,23.0,N/A,,Overcast,330,2013-02-16 14:15:00
9:35 AM,46.4,39.2,76,30.06,10.0,NNW,13.8,21.9,N/A,,Overcast,330,2013-02-16 14:35:00
9:55 AM,46.4,41.0,81,30.08,10.0,NNW,12.7,19.6,N/A,,Drizzle,330,2013-02-16 14:55:00
10:15 AM,44.6,41.0,87,30.08,5.0,NW,6.9,17.3,N/A,,Drizzle,310,2013-02-16 15:15:00
10:35 AM,44.6,41.0,87,30.07,7.0,WNW,5.8,-,N/A,Rain,Rain,300,2013-02-16 15:35:00
1:15 PM,48.2,37.4,66,30.01,10.0,NW,18.4,24.2,N/A,Rain,Rain,320,2013-02-16 18:15:00
1:35 PM,44.6,37.4,76,30.00,10.0,WNW,6.9,-,N/A,,Overcast,290,2013-02-16 18:35:00
1:55 PM,46.4,39.2,76,29.99,10.0,NW,10.4,-,N/A,,Mostly Cloudy,310,2013-02-16 18:55:00
2:15 PM,50.0,35.6,58,29.99,10.0,WNW,12.7,20.7,N/A,Rain,Light Rain,300,2013-02-16 19:15:00
2:35 PM,50.0,32.0,50,29.98,10.0,NW,13.8,20.7,N/A,,Scattered Clouds,320,2013-02-16 19:35:00
2:55 PM,51.8,32.0,47,29.99,10.0,WNW,15.0,18.4,N/A,,Scattered Clouds,290,2013-02-16 19:55:00
3:15 PM,50.0,30.2,47,29.99,10.0,WNW,17.3,23.0,N/A,,Mostly Cloudy,300,2013-02-16 20:15:00
3:35 PM,51.8,30.2,44,29.99,10.0,NW,18.4,25.3,N/A,,Mostly Cloudy,320,2013-02-16 20:35:00
3:55 PM,50.0,28.4,43,30.00,10.0,WNW,16.1,24.2,N/A,,Mostly Cloudy,300,2013-02-16 20:55:00
4:15 PM,50.0,26.6,40,30.00,10.0,WNW,19.6,28.8,N/A,,Mostly Cloudy,300,2013-02-16 21:15:00
4:35 PM,48.2,23.0,37,30.01,10.0,NW,16.1,24.2,N/A,,Overcast,310,2013-02-16 21:35:00
4:55 PM,48.2,21.2,34,30.02,10.0,WNW,12.7,24.2,N/A,,Mostly Cloudy,300,2013-02-16 21:55:00
5:15 PM,46.4,21.2,37,30.03,10.0,WNW,13.8,24.2,N/A,,Mostly Cloudy,290,2013-02-16 22:15:00
5:35 PM,46.4,21.2,37,30.03,10.0,WNW,12.7,21.9,N/A,,Mostly Cloudy,300,2013-02-16 22:35:00
5:55 PM,46.4,19.4,34,30.04,10.0,WNW,9.2,24.2,N/A,,Scattered Clouds,300,2013-02-16 22:55:00
6:15 PM,44.6,17.6,34,30.05,10.0,WNW,13.8,21.9,N/A,,Clear,300,2013-02-16 23:15:00
6:35 PM,44.6,15.8,31,30.06,10.0,WNW,9.2,18.4,N/A,,Clear,290,2013-02-16 23:35:00
6:55 PM,42.8,17.6,36,30.08,10.0,WNW,9.2,16.1,N/A,,Clear,300,2013-02-16 23:55:00
7:15 PM,42.8,17.6,36,30.09,10.0,WNW,6.9,-,N/A,,Clear,300,2013-02-17 00:15:00
7:35 PM,42.8,17.6,36,30.09,10.0,NW,8.1,-,N/A,,Clear,320,2013-02-17 00:35:00
7:55 PM,42.8,15.8,34,30.10,10.0,NW,9.2,-,N/A,,Clear,310,2013-02-17 00:55:00
8:15 PM,42.8,15.8,34,30.11,10.0,NW,6.9,-,N/A,,Clear,310,2013-02-17 01:15:00
8:35 PM,41.0,15.8,36,30.12,10.0,NW,5.8,-,N/A,,Clear,320,2013-02-17 01:35:00
8:55 PM,41.0,17.6,39,30.13,10.0,NW,5.8,-,N/A,,Clear,310,2013-02-17 01:55:00
9:15 PM,39.2,17.6,42,30.15,10.0,NW,6.9,-,N/A,,Clear,310,2013-02-17 02:15:00
9:35 PM,39.2,15.8,39,30.16,10.0,NNW,8.1,-,N/A,,Clear,330,2013-02-17 02:35:00
9:55 PM,39.2,17.6,42,30.17,10.0,NW,4.6,-,N/A,,Clear,320,2013-02-17 02:55:00
10:15 PM,37.4,17.6,45,30.18,10.0,NW,5.8,-,N/A,,Clear,310,2013-02-17 03:15:00
10:35 PM,37.4,17.6,45,30.19,10.0,NW,3.5,-,N/A,,Clear,310,2013-02-17 03:35:00
10:55 PM,37.4,17.6,45,30.19,10.0,NW,3.5,-,N/A,,Clear,320,2013-02-17 03:55:00
11:15 PM,35.6,19.4,52,30.19,10.0,Calm,Calm,-,N/A,,Clear,0,2013-02-17 04:15:00
11:35 PM,35.6,19.4,52,30.20,10.0,WNW,3.5,-,N/A,,Clear,300,2013-02-17 04:35:00
11:55 PM,35.6,19.4,52,30.21,10.0,Calm,Calm,-,N/A,,Clear,0,2013-02-17 04:55:00